www.pogodaiklimat.ru

Погода и климат >> Архив погоды >> Индия >> Карнатака >> Гулбарга


ПОГОДА в Гулбарге

  • Прогноз погоды в Гулбарге
  • Монитор погоды в Гулбарге

АРХИВ ПОГОДЫ в Гулбарге

Время (UTC), дата Ветер
(напр.,м/с)
 
Видим.   Явления Облачность Т
(С)
Тd
(С)
f
(%)
Тe
(С)
Тes
(С)
Комфортность P
(гПа)
Po
(гПа)
Тmin
(С)
Tmax
(С)
R
(мм)
R24
(мм)
S
(см)
06 13.05 СЗ 2 10 км 1/1 600 м
[Sc]
+40.1 +24.0 40 +51 +70 опасность
перегрева
1004.2 956.0
09 13.05 З 2 10 км 8/8 600 м
[Cu Sc]
+41.6 +23.4 36 +51 +55 опасность
перегрева
1000.8 952.9
12 13.05 СЗ 1 10 км 6/6 600 м
[Cu Sc]
+41.2 +20.0 30 +47 +48 опасность
перегрева
998.9 951.0 +42.8
03 14.05 С 1 10 км 1/1 600 м
[Sc]
+33.2 +19.0 43 +38 +46 очень
душно
1006.7 957.3 +30.0 +42.8
06 14.05 С 2 10 км ясно +40.2 +19.0 29 +44 +65 опасность
перегрева
1004.6 956.4
09 14.05 СЗ 3 10 км 1/1 600 м
[Sc diur, vesp]
+42.2 +19.9 28 +47 +61 опасность
перегрева
1001.2 953.4
12 14.05 С 2 10 км 3/3 600 м
[Sc diur, vesp]
+41.4 +17.1 24 +44 +45 опасность
перегрева
1000.1 952.2 +43.3
03 15.05 ЮЗ 1 10 км ясно +32.4 +16.9 40 +36 +44 очень
душно
1007.9 958.2 +28.4 +43.3
06 15.05 В 2 10 км ясно +40.0 +20.6 33 +46 +67 опасность
перегрева
1005.6 957.2
09 15.05 З 2 10 км 5/5 600 м
[Sc diur, vesp]
+42.4 +19.8 28 +48 +56 опасность
перегрева
1001.9 954.1
12 15.05 З 2 10 км 6/6 600 м
[Sc]
+41.4 +18.4 27 +45 +46 опасность
перегрева
1002.8 952.9 +43.2
03 16.05 СЗ 1 10 км 1/0 2000 м
[Ac lent]
+34.0 +19.0 41 +39 +47 очень
душно
1008.4 958.9 +27.9 +43.2
06 16.05 З 2 10 км 1/0
[Ci fib]
+40.0 +19.1 30 +44 +67 опасность
перегрева
1006.8 958.3
09 16.05 З 3 10 км 1/1 600 м
[Sc]
+42.4 +18.6 26 +46 +60 опасность
перегрева
1003.4 955.5
12 16.05 С 1 10 км 3/3 600 м
[Cu Sc]
+41.6 +17.9 25 +44 +46 опасность
перегрева
1002.4 954.4 +43.7
03 17.05 СВ 2 10 км ясно +34.0 +18.6 40 +39 +47 очень
душно
1008.7 959.1 +29.3 +43.7
06 17.05 СВ 3 10 км ясно +39.6 +19.7 32 +45 +64 опасность
перегрева
1006.7 958.2
09 17.05 З 2 10 км 5/5 600 м
[Sc diur, vesp]
+43.0 +20.3 27 +48 +57 опасность
перегрева
1003.1 955.2
12 17.05 СЗ 1 10 км 4/4 600 м
[Sc]
+41.6 +18.7 27 +45 +47 опасность
перегрева
1001.7 953.7 +44.1
03 18.05 С 3 10 км ясно +34.8 +20.0 42 +41 +47 опасность
перегрева
1007.6 958.3 +30.0 +44.1
06 18.05 С 3 10 км ясно +40.2 +21.3 34 +47 +66 опасность
перегрева
1005.4 957.2
09 18.05 З 1 10 км 5/5 600 м
[Sc diur, vesp]
+42.8 +21.5 30 +50 +59 опасность
перегрева
1002.0 954.2
12 18.05 СЗ 1 10 км 4/4 600 м
[Sc diur, vesp]
+41.6 +19.8 29 +47 +48 опасность
перегрева
1001.0 953.0 +43.4
03 19.05 СВ 4 10 км 1/0 2000 м
[Ac lent]
+35.2 +17.9 36 +39 +44 очень
душно
1006.3 957.2 +30.8 +43.4
06 19.05 СВ 2 10 км ясно +40.0 +19.5 31 +45 +66 опасность
перегрева
1004.9 956.5
09 19.05 СЗ 2 10 км 4/4 600 м
[Sc diur, vesp]
+43.6 +20.3 27 +49 +60 опасность
перегрева
1002.0 954.3
12 19.05 С 2 10 км 4/4 600 м
[Sc]
+42.0 +18.8 26 +46 +47 опасность
перегрева
1001.1 953.1 +44.6
03 20.05 СВ 1 10 км ясно +36.0 +22.9 47 +46 +54 опасность
перегрева
1007.2 958.0 +30.8 +44.6

 

Местоположение метеостанции Гулбарга (Карнатака, Индия): широта 17.35 долгота 76.85 высота над уровнем моря 458 м.

В архиве по умолчанию представлена погода в Гулбарге за последнюю неделю. Архивные данные за месяц целиком и за предыдущие месяцы, начиная с января 2011 года, Вы можете получить, выбрав интересующий диапазон дат из раскрывающегося списка и нажав кнопку "Ввод!".


*Определитесь, кто Вы:
робот инопланетянин человек

Внимание! Время в таблицах - всемирное. Для получения местного времени необходимо прибавить поправку, которая равна 5.5 ч.

Смотрите также архив погоды в соседних городах и на ближайших метеорологических станциях:

Погода в Аджере (Махараштра, Индия) (85 км)
Погода в Бидаре (Карнатака, Индия) (96 км)
Погода в Солапуре (Махараштра, Индия) (107 км)
Погода в Османабаде (Махараштра, Индия) (126 км)
Погода в Биджапуре (Карнатака, Индия) (134 км)
Погода в Багалкоте (Карнатака, Индия) (138 км)
Погода в Райчуре (Карнатака, Индия) (139 км)
Погода в Махбубнагаре (Телингана, Индия) (139 км)
Погода в Медаке (Телингана, Индия) (169 км)
Погода в Хайдарабаде (Телингана, Индия) (172 км)

Пояснения к столбцам:

Ветер - указаны скорость ветра в м/с - средняя за 10 мин, порывы в срок и между сроками (в фигурных скобках) и направление, откуда дует ветер: С - северный, СВ - северо-восточный, В - восточный, ЮВ - юго-восточный, Ю - южный, ЮЗ - юго-западный, З - западный, СЗ - северо-западный.
Видимость - горизонтальная дальность видимости в метрах или километрах. При видимости от 1 до 10 км при отсутствии осадков обычно наблюдается дымка, при ухудшении видимости до 1 км и менее - туман. В сухую погоду видимость может ухудшаться дымом, пылью или мглою.
Явления - указаны атмосферные явления, наблюдавшиеся в срок или в последний час перед сроком; фигурными скобками обозначены явления, наблюдавшиеся между сроками (за 1-3 часа до срока); квадратными скобками обозначены град или гололедные отложения с указанием их диаметра в мм.
Облачность - указаны через наклонную черту общая и нижняя облачность в баллах и высота нижней границы облаков в метрах; квадратными скобками обозначены формы облаков: Ci - перистые, Cs - перисто-слоистые, Cc - перисто-кучевые, Ac - высококучевые, As - высокослоистые, Sc - слоисто-кучевые, Ns - слоисто-дождевые, Cu - кучевые, Cb - кучево-дождевые. Подробнее классификацию облаков см. в Атласе облаков (PDF).
T - Температура воздуха - температура, измеренная на высоте 2 м над землей.
Td - Температура точки росы - температура, при понижении до которой содержащийся в воздухе водяной пар достигнет насыщения.
f - Относительная влажность воздуха - влажноcть воздуха, измеренная на высоте 2 м над землей.
Te - Эффективная температура - температура, которую ощущает одетый по сезону человек в тени. Характеристика душности погоды. При расчете учитывается влияние влажности воздуха и скорости ветра на теплоощущения человека.
Tes - Эффективная температура на солнце - температура, которую ощущает человек, с поправкой на солнечный нагрев. Характеристика знойности погоды. Зависит от высоты солнца над горизонтом, облачности и скорости ветра. Ночью, в пасмурную погоду, а также при ветре 12 м/с и более поправка равна нулю.
P - Атмосферное давление - приведенное к уровню моря атмосферное давление.
Po - Атмосферное давление - измеренное на уровне метеостанции атмосферное давление.
Tmin - Минимальная температура - минимум температуры воздуха на высоте 2 м над землей.
Tmax - Максимальная температура - максимум температуры воздуха на высоте 2 м над землей.
R - Количество осадков - Количество выпавших осадков за период времени, мм. При наведении курсора мыши на число - период времени, за который выпало указанное количество осадков.
R24 - Количество осадков - Количество выпавших осадков за 24 часа, мм.
S - Снежный покров - Высота снежного покрова, см. При наведении курсора мыши на число - состояние снежного покрова и степень покрытия местности в баллах.